This is the latest recevied weather packets stored in our database for station/object N3EYQ. If no packets are shown the sender has not sent any weather packets the latest 10 day(s).
| Time | Temp. | Humidity | Pressure | Rain* | Wind** | Luminosity | Snow |
|---|---|---|---|---|---|---|---|
| 1777575554 | 13.89° C | 75% | 1006.9 hPa | 0 mm | - | - | - |
| 1777574954 | 13.33° C | 75% | 1006.9 hPa | 0 mm | - | - | - |
| 1777574354 | 13.89° C | 76% | 1006.9 hPa | 0 mm | - | - | - |
| 1777573754 | 13.33° C | 76% | 1006.9 hPa | 0 mm | - | - | - |
| 1777573154 | 13.33° C | 77% | 1006.6 hPa | 0 mm | - | - | - |
| 1777572554 | 13.33° C | 78% | 1006.9 hPa | 0 mm | - | - | - |
| 1777571954 | 13.33° C | 78% | 1006.6 hPa | 0 mm | - | - | - |
| 1777571354 | 13.33° C | 79% | 1006.6 hPa | 0 mm | - | - | - |
| 1777570753 | 13.33° C | 79% | 1006.6 hPa | 0 mm | - | - | - |
| 1777570154 | 13.33° C | 79% | 1006.6 hPa | 0 mm | - | - | - |
| 1777569553 | 13.33° C | 78% | 1006.6 hPa | 0 mm | - | - | - |
| 1777568953 | 13.89° C | 76% | 1006.9 hPa | 0 mm | - | - | - |
| 1777568353 | 13.89° C | 73% | 1006.9 hPa | 0 mm | - | - | - |
| 1777567753 | 14.44° C | 75% | 1006.9 hPa | 0 mm | - | - | - |
| 1777567153 | 14.44° C | 75% | 1006.9 hPa | 0 mm | - | - | - |
| 1777566552 | 14.44° C | 78% | 1007.2 hPa | 0 mm | - | - | - |
| 1777565952 | 13.89° C | 78% | 1007.2 hPa | 0 mm | - | - | - |
| 1777565353 | 13.89° C | 79% | 1007.6 hPa | 0 mm | - | - | - |
| 1777564752 | 12.78° C | 80% | 1007.6 hPa | 0 mm | - | - | - |
| 1777564152 | 13.33° C | 79% | 1007.6 hPa | 0 mm | - | - | - |
| 1777563552 | 12.78° C | 81% | 1007.6 hPa | 0 mm | - | - | - |
| 1777562952 | 12.22° C | 82% | 1007.6 hPa | 0 mm | - | - | - |
| 1777562352 | 12.22° C | 83% | 1007.6 hPa | 0 mm | - | - | - |
| 1777561752 | 12.22° C | 83% | 1007.6 hPa | 0 mm | - | - | - |
| 1777561152 | 12.22° C | 83% | 1007.6 hPa | 0 mm | - | - | - |
* Rain latest hour (hover to see other rain measurements)
** Current wind speed in m/s (hover to see current wind gust speed)